Wind_Speed
7 7 7 6 7 8 8 9 10 9 10 10 10 9 9 10 10 11 11 10 9 8 8 8 7 7 6 6 6 6 6 5 5 5 5 5 4 4 3 3 2 1 1
7 7 7 7 7 8 8 9 10 10 10 10 10 9 9 10 10 10 9 10 9 8 8 8 7 6 5 5 5 6 6 6 5 5 4 4 4 3 3 2 2 2 1
8 8 7 7 7 8 9 9 10 10 10 10 10 9 9 10 10 9 9 9 9 8 8 8 8 6 5 5 5 5 4 5 4 4 4 4 4 3 3 2 2 2 2
8 8 7 7 8 9 9 9 10 10 10 10 10 10 10 10 10 9 9 9 8 8 8 8 8 7 6 5 4 4 4 4 4 3 3 4 3 3 3 2 2 3 3
8 9 8 8 9 10 10 10 9 9 10 10 10 10 10 10 9 8 8 8 8 7 7 8 7 6 5 5 4 3 3 4 4 3 3 3 3 3 3 2 2 2 3
8 9 9 9 10 10 10 9 9 10 9 10 10 10 10 10 9 9 8 8 7 7 7 7 6 6 5 4 4 3 3 3 3 3 3 3 2 3 3 3 2 3 3
9 8 9 9 9 9 10 9 10 9 9 9 10 10 10 10 9 9 9 8 7 6 5 5 5 5 5 4 4 4 3 2 3 3 2 3 2 3 4 3 4 4 4
10 9 9 9 9 9 9 9 10 10 9 9 10 9 10 9 9 9 8 7 7 6 5 4 4 4 4 3 3 3 2 2 2 2 3 3 3 4 4 4 4 5 5
10 9 9 9 9 9 9 10 10 10 10 9 9 9 8 8 9 8 8 7 7 6 5 4 4 4 3 3 3 3 3 3 3 3 3 3 4 4 4 5 5 5 6
10 10 10 10 10 10 9 10 10 10 10 10 9 8 8 8 8 7 7 6 6 6 5 4 4 3 4 4 4 4 4 4 4 4 4 4 4 5 5 6 6 5 6
11 11 11 11 11 11 10 11 11 11 10 10 9 9 8 8 7 6 5 5 5 4 4 3 3 2 2 4 5 5 4 4 4 4 4 4 4 5 5 6 6 6 6
11 11 12 11 11 11 11 11 11 11 10 9 9 9 8 8 7 5 4 4 4 4 2 1 1 1 1 2 4 4 4 4 4 4 5 5 5 5 5 6 6 7 7
12 12 12 12 12 12 11 11 11 10 10 9 8 8 7 7 6 6 5 4 3 3 2 1 1 1 2 3 3 3 3 3 3 4 5 5 5 5 6 7 7 7 7
12 11 11 11 11 11 11 11 11 10 10 9 8 8 6 6 6 5 5 4 3 2 1 2 2 2 2 2 2 2 2 3 3 3 4 5 5 6 6 7 8 8 8
12 11 11 11 11 11 11 11 10 10 9 7 6 6 6 6 5 5 4 3 2 2 2 2 3 3 2 2 1 1 1 2 3 3 4 5 6 7 7 7 8 9 9
12 11 11 10 10 10 10 10 9 9 8 8 6 7 6 6 6 5 4 4 3 3 2 2 2 2 2 2 2 1 1 2 2 3 4 5 6 7 7 7 8 8 9
11 11 10 10 9 9 9 8 8 8 8 7 6 6 6 5 5 5 4 3 3 2 2 1 1 2 2 2 2 2 2 2 3 3 4 5 6 7 7 8 8 9 10
10 10 10 9 9 8 8 8 7 7 6 6 5 5 5 5 5 5 4 4 3 3 3 2 2 2 2 2 2 2 3 3 4 4 5 5 6 6 6 7 8 10 11
9 9 8 8 8 8 7 6 6 6 6 5 5 5 5 5 6 5 5 4 4 4 4 3 2 2 3 3 3 3 3 3 4 5 5 5 5 6 7 7 8 9 10
8 8 8 7 7 7 7 6 6 6 5 5 6 6 5 6 6 6 5 5 5 4 4 4 3 3 3 3 3 3 3 4 5 5 5 5 5 6 7 8 8 9 10
7 7 7 7 7 6 6 6 6 6 5 5 5 6 6 6 6 6 6 5 4 4 4 4 4 4 4 3 3 3 4 4 5 5 5 6 6 7 8 8 9 10 11
6 6 6 6 6 6 6 5 5 5 5 5 5 5 5 4 5 5 5 4 4 4 4 4 4 5 5 4 4 4 5 6 6 6 7 7 7 8 8 9 10 11 11
5 5 6 6 6 6 6 5 5 6 6 5 4 4 4 4 4 3 4 4 4 4 4 4 4 5 5 5 6 6 6 7 8 8 8 8 8 8 9 9 10 11 11
4 5 5 5 5 5 5 5 5 5 4 4 4 3 3 3 3 3 3 3 3 4 4 5 5 5 6 6 6 7 7 7 8 8 8 9 9 10 10 11 11 11 11
2 3 3 4 4 4 4 4 4 4 3 3 2 2 3 3 3 3 3 3 3 4 5 5 5 5 6 6 7 7 7 8 8 9 10 10 10 10 11 11 12 12 12
1 1 1 2 2 3 2 2 2 3 2 2 2 2 2 2 2 3 3 3 3 4 4 5 6 6 7 7 7 8 8 8 9 10 10 11 11 11 12 12 13 13 13
Wind_Direction
112 122 126 134 142 144 140 136 137 140 141 141 138 141 143 138 139 139 139 140 138 139 141 140 140 134 133 129 131 138 148 149 150 151 153 150 154 155 157 150 150 143 129
111 118 122 136 146 148 146 141 143 143 141 138 137 139 142 140 141 140 137 140 140 140 143 146 148 141 143 138 135 139 141 147 146 157 161 159 160 163 170 177 199 197 210
112 116 123 127 140 150 151 147 142 142 143 139 138 137 139 140 139 139 142 143 143 144 148 152 152 151 148 143 138 142 144 151 150 155 165 173 169 176 177 200 217 202 209
111 115 121 120 132 145 148 146 144 140 141 141 139 137 138 141 141 140 147 149 149 149 151 154 154 157 153 149 143 141 153 154 150 154 164 183 185 182 189 212 224 207 214
111 114 115 118 128 141 146 148 146 143 143 145 143 141 141 140 147 147 150 150 151 153 155 158 159 163 161 160 157 160 168 173 171 174 177 184 193 194 208 219 228 223 225
105 113 115 121 125 136 142 146 147 144 144 147 146 145 144 145 145 144 147 151 151 150 156 162 167 174 170 168 170 178 187 187 193 200 209 218 221 218 224 232 238 237 238
104 111 114 123 128 132 140 142 144 143 142 146 145 144 144 143 140 138 143 148 152 151 157 164 168 171 171 177 186 193 204 215 220 220 222 233 233 237 238 247 252 251 263
106 108 112 119 125 128 133 140 142 142 143 146 146 144 142 142 140 138 141 147 153 157 160 162 163 171 176 187 197 197 203 217 229 236 243 237 241 240 243 257 260 263 269
104 107 108 115 119 122 125 132 136 138 139 141 143 143 143 142 138 139 140 147 151 156 159 167 172 184 194 207 209 216 223 236 246 254 247 243 251 254 261 266 271 271 272
103 107 106 107 112 118 123 129 133 135 137 139 139 143 142 139 138 138 139 147 151 156 163 182 193 204 216 222 224 227 233 240 248 250 244 246 256 262 270 272 273 277 273
100 104 106 107 107 111 117 125 132 134 135 139 141 137 133 133 137 140 135 139 147 150 155 179 198 217 239 240 231 230 234 245 248 249 250 252 259 268 277 280 276 276 274
97 101 104 106 107 109 111 119 126 131 133 138 138 137 133 133 134 131 131 135 143 147 148 159 174 187 226 223 227 223 233 245 247 252 256 258 264 270 277 284 282 281 279
96 98 102 104 106 108 106 110 120 127 129 131 130 135 134 135 131 127 126 132 136 146 145 126 102 131 165 188 211 219 238 259 264 255 259 266 274 275 276 283 284 286 285
98 99 101 102 104 106 107 108 114 124 126 123 123 126 130 135 131 128 125 119 122 132 110 85 80 103 127 151 180 224 256 269 279 261 256 269 277 277 282 286 287 287 289
97 98 99 100 100 104 107 105 106 111 116 115 116 119 120 126 129 131 128 125 128 125 115 91 78 83 103 117 131 160 260 270 272 278 287 280 281 289 295 294 294 298 294
95 96 97 98 97 100 104 104 103 105 106 107 110 117 114 117 122 125 116 109 107 112 114 97 92 91 74 63 61 43 0 324 311 299 294 288 289 291 293 289 289 295 297
91 93 94 95 94 95 98 102 103 104 105 103 103 108 113 120 117 115 112 109 99 92 93 87 69 68 62 48 27 2 341 329 325 314 306 302 297 296 293 291 294 298 297
86 91 92 91 93 93 93 96 100 101 101 100 103 108 109 107 103 103 96 91 87 81 79 81 62 52 38 22 1 349 340 331 330 324 319 312 311 313 308 306 307 306 303
79 81 86 88 90 92 90 90 88 90 94 96 98 102 100 94 93 94 92 88 82 76 71 65 52 37 25 7 1 355 345 335 335 334 326 316 315 315 317 320 316 313 312
80 77 79 84 88 92 89 86 83 80 86 92 94 95 98 99 98 93 87 80 77 70 60 48 38 27 13 359 357 352 347 342 338 335 333 329 328 321 320 322 320 318 315
80 79 79 83 85 86 87 84 82 80 84 91 92 93 96 99 94 87 79 73 71 68 58 44 33 25 17 8 3 354 345 342 342 337 335 330 323 319 320 320 320 318 314
79 79 80 84 86 85 85 81 77 75 83 86 90 92 89 94 95 86 76 68 66 63 55 43 34 30 22 14 6 0 350 347 345 344 337 329 326 322 320 319 319 321 318
73 80 83 83 82 83 81 79 76 78 79 87 95 86 78 82 89 82 72 65 54 47 42 32 27 19 16 13 6 360 353 350 347 345 341 334 330 325 320 319 320 321 322
73 78 85 79 77 78 80 78 73 72 75 79 81 69 65 75 80 84 74 62 48 42 35 26 19 12 7 3 357 356 354 349 347 344 341 337 334 331 329 326 323 324 324
61 74 72 70 73 70 68 69 68 67 67 69 58 60 60 65 77 85 71 55 39 33 28 22 13 4 2 359 354 351 350 346 343 341 339 338 335 331 328 328 329 326 324
322 53 55 58 70 66 61 60 61 59 59 52 41 60 60 54 57 63 59 41 34 23 18 14 11 5 1 356 352 348 343 341 341 340 337 336 335 332 329 326 325 324 322
Height
5868 5868 5868 5868 5869 5870 5871 5872 5873 5873 5874 5875 5876 5877 5878 5879 5880 5880 5881 5882 5883 5884 5885 5886 5887 5888 5888 5889 5890 5890 5890 5891 5892 5892 5892 5893 5893 5894 5894 5895 5895 5895 5895
5869 5869 5869 5869 5870 5871 5872 5873 5874 5874 5875 5876 5877 5878 5879 5880 5880 5881 5882 5883 5884 5885 5886 5887 5888 5888 5889 5890 5890 5891 5891 5892 5892 5893 5893 5893 5894 5894 5895 5895 5895 5895 5895
5870 5869 5869 5870 5870 5872 5873 5874 5874 5875 5876 5877 5878 5879 5880 5881 5881 5882 5883 5884 5885 5886 5887 5887 5888 5889 5890 5890 5891 5892 5892 5892 5893 5893 5893 5893 5894 5894 5895 5895 5895 5895 5895
5871 5870 5870 5871 5871 5872 5873 5874 5875 5876 5877 5878 5879 5880 5881 5881 5882 5883 5884 5885 5886 5887 5887 5888 5889 5890 5890 5891 5892 5892 5893 5893 5893 5893 5893 5893 5894 5894 5895 5895 5895 5895 5895
5872 5872 5872 5872 5872 5873 5874 5875 5876 5877 5878 5879 5879 5881 5882 5882 5883 5884 5885 5885 5886 5887 5888 5889 5889 5890 5890 5891 5892 5892 5893 5893 5893 5894 5894 5894 5894 5894 5895 5895 5895 5895 5894
5873 5873 5873 5873 5873 5874 5875 5876 5877 5878 5879 5879 5880 5881 5882 5883 5884 5884 5885 5886 5887 5888 5889 5889 5890 5890 5891 5891 5892 5892 5893 5893 5894 5894 5894 5894 5894 5895 5894 5894 5894 5894 5894
5875 5874 5874 5874 5875 5875 5876 5877 5877 5878 5879 5880 5881 5882 5883 5884 5884 5885 5886 5886 5887 5888 5889 5890 5890 5890 5891 5891 5892 5892 5893 5893 5893 5894 5894 5894 5894 5894 5894 5894 5894 5894 5893
5876 5875 5875 5875 5876 5876 5876 5877 5878 5879 5880 5881 5882 5883 5884 5885 5885 5886 5887 5887 5888 5889 5889 5890 5890 5890 5891 5891 5891 5892 5893 5893 5893 5893 5893 5894 5894 5894 5894 5894 5893 5893 5893
5877 5877 5877 5877 5877 5877 5877 5878 5879 5880 5881 5882 5883 5884 5885 5885 5886 5887 5887 5888 5889 5889 5890 5890 5890 5890 5890 5890 5891 5892 5892 5893 5893 5893 5893 5893 5893 5893 5893 5893 5892 5892 5892
5879 5879 5879 5878 5878 5877 5877 5878 5880 5881 5882 5883 5884 5885 5886 5886 5887 5887 5888 5889 5889 5889 5890 5890 5890 5889 5889 5889 5890 5891 5891 5892 5892 5892 5892 5893 5893 5893 5892 5892 5892 5891 5891
5881 5881 5881 5880 5880 5879 5878 5879 5880 5882 5883 5884 5885 5886 5886 5887 5888 5888 5889 5889 5890 5890 5890 5890 5889 5888 5886 5886 5887 5889 5891 5891 5891 5891 5892 5892 5892 5892 5891 5891 5890 5890 5890
5883 5883 5883 5882 5882 5881 5880 5881 5882 5884 5884 5885 5886 5887 5887 5888 5889 5889 5890 5890 5891 5891 5891 5890 5889 5887 5886 5884 5886 5888 5890 5890 5891 5891 5891 5891 5891 5891 5890 5890 5889 5889 5888
5886 5886 5885 5885 5884 5884 5883 5884 5885 5886 5886 5887 5888 5888 5889 5889 5889 5890 5891 5891 5891 5891 5891 5890 5890 5889 5887 5886 5887 5889 5890 5890 5890 5890 5890 5890 5890 5890 5889 5889 5888 5888 5887
5888 5888 5888 5887 5887 5887 5887 5887 5887 5888 5888 5889 5889 5890 5890 5890 5891 5891 5892 5892 5892 5892 5891 5891 5890 5890 5889 5889 5889 5889 5890 5890 5890 5889 5889 5889 5889 5889 5888 5888 5887 5886 5885
5891 5890 5890 5890 5890 5890 5890 5890 5890 5890 5890 5891 5891 5891 5892 5892 5892 5892 5893 5892 5892 5892 5892 5892 5891 5891 5890 5890 5890 5890 5889 5890 5889 5889 5889 5888 5888 5888 5887 5886 5885 5884 5883
5893 5893 5893 5893 5892 5892 5892 5892 5892 5892 5892 5892 5892 5892 5893 5893 5893 5893 5893 5893 5893 5893 5893 5892 5892 5891 5891 5890 5890 5890 5890 5889 5889 5889 5888 5888 5887 5887 5886 5885 5884 5883 5882
5896 5895 5895 5895 5895 5895 5895 5894 5894 5894 5894 5894 5893 5893 5893 5894 5893 5894 5894 5894 5894 5893 5893 5892 5892 5892 5891 5891 5891 5890 5890 5889 5889 5888 5888 5887 5886 5885 5884 5883 5882 5881 5880
5898 5897 5897 5897 5897 5896 5896 5896 5896 5896 5896 5895 5895 5895 5895 5895 5895 5895 5895 5894 5894 5894 5893 5893 5892 5892 5892 5891 5891 5890 5890 5889 5889 5888 5887 5886 5885 5884 5883 5882 5881 5880 5878
5900 5900 5899 5899 5898 5898 5898 5898 5898 5897 5897 5897 5896 5896 5896 5896 5896 5896 5896 5895 5895 5894 5894 5893 5893 5892 5892 5891 5890 5890 5889 5889 5888 5887 5886 5885 5884 5883 5882 5881 5879 5878 5876
5902 5902 5901 5900 5900 5899 5899 5899 5899 5898 5898 5898 5898 5897 5897 5897 5897 5897 5897 5896 5896 5895 5895 5894 5893 5892 5892 5891 5890 5890 5889 5889 5888 5887 5886 5885 5884 5882 5881 5879 5878 5876 5874
5904 5903 5903 5902 5901 5901 5901 5900 5900 5900 5899 5899 5899 5898 5898 5898 5898 5897 5897 5897 5896 5896 5895 5894 5894 5893 5892 5891 5891 5890 5889 5888 5887 5886 5885 5884 5883 5881 5880 5878 5877 5875 5873
5906 5905 5904 5904 5903 5902 5902 5902 5901 5900 5900 5900 5899 5899 5899 5898 5898 5898 5898 5897 5897 5896 5896 5895 5894 5893 5892 5891 5891 5890 5889 5889 5887 5886 5885 5883 5882 5880 5879 5877 5875 5874 5871
5907 5906 5905 5905 5904 5904 5903 5903 5902 5902 5901 5901 5900 5900 5900 5899 5899 5898 5898 5898 5897 5896 5896 5895 5894 5893 5892 5891 5890 5890 5889 5888 5886 5885 5884 5882 5881 5879 5878 5876 5874 5872 5870
5908 5907 5907 5906 5906 5905 5904 5904 5904 5903 5902 5902 5901 5901 5900 5899 5899 5899 5899 5898 5898 5897 5896 5895 5894 5893 5893 5891 5890 5889 5888 5887 5886 5885 5883 5881 5879 5878 5876 5874 5872 5870 5868
5909 5909 5908 5907 5907 5906 5905 5905 5904 5904 5904 5903 5902 5902 5901 5900 5900 5899 5899 5899 5898 5898 5897 5896 5894 5893 5892 5891 5890 5889 5888 5886 5885 5884 5882 5880 5878 5876 5874 5872 5870 5868 5866
5910 5909 5909 5908 5907 5907 5906 5906 5905 5905 5904 5903 5903 5902 5901 5901 5900 5900 5900 5899 5898 5898 5897 5896 5894 5893 5892 5891 5890 5888 5887 5885 5884 5882 5880 5879 5877 5875 5873 5870 5868 5866 5864